TimeAKST,TemperatureF,Dew PointF,Humidity,Sea Level PressureIn,VisibilityMPH,Wind Direction,Wind SpeedMPH,Gust SpeedMPH,PrecipitationIn,Events,Conditions,WindDirDegrees,DateUTC
12:53 AM,26.1,24.1,92,29.32,10.0,SE,19.6,26.5,N/A,,Overcast,130,2011-12-20 09:53:00
1:53 AM,26.1,25.0,96,29.32,3.0,ESE,13.8,-,0.00,Snow,Light Snow,110,2011-12-20 10:53:00
2:20 AM,26.6,24.8,93,29.32,7.0,ESE,19.6,-,0.00,Snow,Light Snow,110,2011-12-20 11:20:00
3:53 AM,26.1,24.1,92,29.33,10.0,ESE,20.7,-,0.00,,Overcast,110,2011-12-20 12:53:00
4:16 AM,26.6,24.8,93,29.33,1.0,ESE,19.6,-,0.00,Snow,Light Snow,110,2011-12-20 13:16:00
4:24 AM,26.6,24.8,93,29.34,3.0,ESE,19.6,-,0.00,Snow,Light Snow,110,2011-12-20 13:24:00
4:53 AM,26.1,25.0,96,29.34,8.0,ESE,18.4,-,0.00,Snow,Light Snow,110,2011-12-20 13:53:00
5:51 AM,24.8,24.8,100,29.34,5.0,ESE,19.6,-,0.00,,Overcast,120,2011-12-20 14:51:00
5:53 AM,25.0,24.1,96,29.34,5.0,ESE,18.4,-,0.00,Snow,Light Snow,110,2011-12-20 14:53:00
6:51 AM,24.8,23.0,93,29.35,10.0,ESE,19.6,-,0.00,,Overcast,110,2011-12-20 15:51:00
6:53 AM,24.1,23.0,96,29.36,10.0,ESE,19.6,-,0.00,,Overcast,110,2011-12-20 15:53:00
7:53 AM,24.1,21.9,91,29.37,10.0,ESE,16.1,-,N/A,,Overcast,110,2011-12-20 16:53:00
8:53 AM,21.0,19.9,96,29.38,10.0,East,13.8,-,N/A,,Clear,100,2011-12-20 17:53:00
9:34 AM,19.4,17.6,93,29.39,10.0,East,13.8,-,N/A,,Scattered Clouds,80,2011-12-20 18:34:00
9:53 AM,21.9,19.9,92,29.39,10.0,East,19.6,-,N/A,,Scattered Clouds,90,2011-12-20 18:53:00
10:53 AM,21.0,19.0,92,29.41,10.0,East,15.0,-,N/A,,Scattered Clouds,90,2011-12-20 19:53:00
11:53 AM,19.0,18.0,96,29.41,10.0,East,13.8,-,N/A,,Partly Cloudy,80,2011-12-20 20:53:00
12:53 PM,19.9,18.0,92,29.42,10.0,East,12.7,-,N/A,,Scattered Clouds,80,2011-12-20 21:53:00
1:50 PM,21.2,19.4,93,29.41,10.0,ENE,13.8,-,N/A,,Mostly Cloudy,70,2011-12-20 22:50:00
1:53 PM,21.9,19.0,89,29.41,10.0,ENE,13.8,-,N/A,,Mostly Cloudy,70,2011-12-20 22:53:00
2:26 PM,21.2,17.6,86,29.41,10.0,ENE,12.7,-,N/A,,Overcast,70,2011-12-20 23:26:00
2:53 PM,21.0,19.0,92,29.41,10.0,East,15.0,-,N/A,,Mostly Cloudy,80,2011-12-20 23:53:00
3:44 PM,21.2,19.4,93,29.39,10.0,East,9.2,-,N/A,,Mostly Cloudy,80,2011-12-21 00:44:00
3:53 PM,21.9,18.0,85,29.39,10.0,ENE,9.2,-,N/A,,Mostly Cloudy,70,2011-12-21 00:53:00
4:53 PM,23.0,18.0,81,29.38,10.0,ENE,10.4,-,N/A,,Mostly Cloudy,60,2011-12-21 01:53:00
5:53 PM,19.0,15.1,85,29.38,10.0,NE,8.1,-,N/A,,Mostly Cloudy,40,2011-12-21 02:53:00
6:53 PM,21.0,16.0,81,29.38,10.0,NE,10.4,-,N/A,,Mostly Cloudy,40,2011-12-21 03:53:00
7:53 PM,17.1,12.9,84,29.38,10.0,NNE,6.9,-,N/A,,Mostly Cloudy,20,2011-12-21 04:53:00
8:53 PM,18.0,12.9,81,29.37,10.0,North,9.2,-,N/A,,Mostly Cloudy,10,2011-12-21 05:53:00
9:53 PM,16.0,10.9,81,29.36,10.0,North,11.5,-,N/A,,Mostly Cloudy,360,2011-12-21 06:53:00
10:53 PM,17.1,10.9,77,29.36,10.0,NNW,11.5,-,N/A,,Mostly Cloudy,340,2011-12-21 07:53:00
11:53 PM,19.0,10.9,71,29.35,10.0,North,11.5,-,N/A,,Scattered Clouds,350,2011-12-21 08:53:00